OpenBCM V1.08-5-g2f4a (Linux)

Packet Radio Mailbox

IZ3LSV

[San Dona' di P. JN]

 Login: GUEST





  
WG3K   > KEPS     30.06.24 16:28l 442 Lines 21236 Bytes #6 (0) @ AMSAT
BID : ORB24182.1
Read: GUEST
Subj: 2Line Orbital Elements 24182.AMSAT
Path: IZ3LSV<DB0ERF<DK0WUE<DK0WUE<VK5RSV<VK2RZ<N6PNK<W9GM<N3HYM<WG3K
Sent: 240630/1523Z 5806@WG3K.#SMD.MD.USA.NOAM LinBPQ6.0.24


QST de W1STR

AMSAT Orbital Elements for Amateur Satellites in TLE Format
From Orbital Analysis Office
New England Sci-Tech STEM Education Center
Natick, MA June 30, 2024
To all radio amateurs


These element sets describe the orbits of various satellites 
in use by the amateur radio community. For details see:
www.amsat.org/keplerian-elements-formats/

A daily update of element sets is available at:
www.amsat.org/tle/daily-bulletin.txt
or without bulletin text:
www.amsat.org/tle/dailytle.txt


AO-07
1 07530U 74089B   24181.60704903 -.00000024  00000-0  14182-3 0  9994
2 07530 101.9777 176.3713 0012614  61.5015  48.4566 12.53676540270594
UO-11
1 14781U 84021B   24181.47322857  .00003088  00000-0  35228-3 0  9992
2 14781  97.7049 150.3759 0009213  45.2243 314.9722 14.86789624150317
AO-16
1 20439U 90005D   24181.62982387  .00000405  00000-0  16365-3 0  9996
2 20439  98.8991 187.1029 0010866 169.5755 306.5087 14.33400238799115
LO-19
1 20442U 90005G   24181.57762526  .00000400  00000-0  16120-3 0  9999
2 20442  98.8822 172.1704 0012270 144.8665 215.3330 14.33560974799553
AO-27
1 22825U 93061C   24181.70810744  .00000295  00000-0  13069-3 0  9993
2 22825  98.7876 234.6139 0009197  48.1328 312.0638 14.30513261604678
IO-26
1 22826U 93061D   24181.68331953  .00000339  00000-0  14646-3 0  9992
2 22826  98.7823 234.4528 0009469  34.1216 326.0573 14.30896454604934
FO-29
1 24278U 96046B   24181.54150855  .00000004  00000-0  38853-4 0  9992
2 24278  98.5805 114.5783 0350465 156.1071 205.6787 13.53191615376100
NOAA-15
1 25338U 98030A   24181.79102517  .00000464  00000-0  21007-3 0  9996
2 25338  98.5676 208.6543 0009095 290.1760  69.8442 14.26615040359234
GO-32
1 25397U 98043D   24181.53305452  .00000235  00000-0  12234-3 0  9998
2 25397  98.9220 148.4404 0002288 106.9311 253.2118 14.24062233349177
ISS
1 25544U 98067A   24181.79216613  .00020211  00000-0  36172-3 0  9999
2 25544  51.6396 252.8553 0011414  20.8757  82.0584 15.49899443460500
NO-44
1 26931U 01043C   24181.57529862  .00000453  00000-0  20230-3 0  9991
2 26931  67.0521 299.5482 0007286 277.7759  82.2515 14.31263962187725
SO-50
1 27607U 02058C   24181.43871832  .00002674  00000-0  37721-3 0  9991
2 27607  64.5533 183.8880 0026069 106.2184 254.1791 14.79065836158137
CO-55
1 27844U 03031E   24181.60391956  .00000786  00000-0  36608-3 0  9994
2 27844  98.6761 188.4595 0011001 106.8132 253.4254 14.23293569 89587
CO-57
1 27848U 03031J   24181.75393711  .00000663  00000-0  31537-3 0  9995
2 27848  98.6794 188.8453 0010726 120.6966 239.5271 14.22730824 89376
RS-22
1 27939U 03042A   24181.81798869  .00002687  00000-0  45589-3 0  9998
2 27939  98.2923 338.2182 0012390  26.3079 102.4429 14.70028635110138
NOAA-18
1 28654U 05018A   24181.81030218  .00000379  00000-0  22567-3 0  9992
2 28654  98.8743 258.6705 0014624  31.9389 328.2667 14.13241753985040
CO-58
1 28895U 05043F   24181.30687012  .00003411  00000-0  60567-3 0  9993
2 28895  98.2030 317.1520 0014698 322.6163  37.4018 14.67797862996235
CO-65
1 32785U 08021C   24181.51739558  .00008801  00000-0  77026-3 0  9997
2 32785  97.7543 146.7416 0008819 287.4969  72.5288 14.96924792877324
AAUSAT2
1 32788U 08021F   24181.50388055  .00029835  00000-0  14613-2 0  9993
2 32788  97.5937 161.7830 0008016 121.2496 238.9524 15.18083563880195
CO-66
1 32791U 08021J   24181.50873184  .00013587  00000-0  98257-3 0  9993
2 32791  97.6911 152.6113 0002659 255.3805 104.7126 15.04150084878378
RS-30
1 32953U 08025A   24181.78769968  .00000007  00000-0 -23520-4 0  9997
2 32953  82.5029  81.6499 0020631  76.9996 283.3386 12.43142928730699
PRISM
1 33493U 09002B   24181.69513156  .00031501  00000-0  14568-2 0  9991
2 33493  98.2038 230.4014 0012540 198.1390 161.9397 15.20028481840954
NOAA-19
1 33591U 09005A   24181.76346576  .00000359  00000-0  21668-3 0  9998
2 33591  99.0464 237.6953 0012814 255.3884 104.5867 14.13036749793403
SRMSAT
1 37841U 11058D   24181.84282949  .00000564  00000-0  16390-3 0  9997
2 37841  19.9726  80.2335 0011789 233.2622 173.7409 14.11132856656578
HRBE
1 37855U 11061F   24181.48899497  .06822559  53618-5  12523-2 0  9991
2 37855 101.6695  18.4821 0019276 270.1807  89.7262 16.31679092695033
RS-40
1 38735U 12041C   24181.57706703  .00000058  00000-0  34767-3 0  9998
2 38735  82.4755 162.1603 0016957 187.3640 172.7193 12.42611042540715
ZACUBE-1
1 39417U 13066B   24181.61648083  .00007840  00000-0  81006-3 0  9999
2 39417  97.7337 137.3068 0052209 118.4945 242.1545 14.89379277573432
Delfi-N3xt
1 39428U 13066N   24181.52022269  .00013290  00000-0  16774-2 0  9998
2 39428  97.8376  99.5275 0102213  49.4654 311.5404 14.78364048567917
GOMX-1
1 39430U 13066Q   24181.82853188  .00003397  00000-0  56812-3 0  9991
2 39430  97.7315  55.4480 0138946 212.1605 147.1068 14.64255996564897
LO-74
1 39440U 13066AA  24181.58792587  .00006240  00000-0  73418-3 0  9991
2 39440  97.8125 124.9912 0068170 232.7532 126.7452 14.83515685570171
AO-73
1 39444U 13066AE  24181.41744675  .00010518  00000-0  10102-2 0  9995
2 39444  97.7191 140.2667 0049831 100.2047 260.4797 14.92289167571934
SPROUT
1 39770U 14029E   24181.78230210  .00270900  00000-0  42366-2 0  9992
2 39770  98.0068 335.7797 0005457 215.9183 144.1702 15.52787293549602
DTUSAT-2
1 40030U 14033W   24181.83732986  .00009508  00000-0  79598-3 0  9993
2 40030  98.0096 134.6143 0011746 105.8552 254.3966 14.98618735545100
EO-80
1 40032U 14033Y   24181.60546616  .00010044  00000-0  84006-3 0  9990
2 40032  98.0051 134.3833 0011498 113.5453 246.6977 14.98640904544531
XW-2C
1 40906U 15049H   24181.83252523  .00036520  00000-0  81626-3 0  9996
2 40906  97.4774 198.9771 0006073 240.6955 119.3686 15.43404178486423
XW-2D
1 40907U 15049J   24181.78836921  .00062488  00000-0  10565-2 0  9996
2 40907  97.4717 201.5844 0005777 215.7626 144.3240 15.51371186486651
LILACSAT-2
1 40908U 15049K   24181.78009538  .00013167  00000-0  50397-3 0  9991
2 40908  97.5235 190.5806 0010418 311.1290  48.9048 15.26644428485411
XW-2B
1 40911U 15049N   24181.82112249  .00055417  00000-0  96556-3 0  9995
2 40911  97.4687 201.6952 0005532 218.7564 141.3291 15.50553696486522
IO-86
1 40931U 15052B   24180.14795637  .00001526  00000-0  11891-3 0  9994
2 40931   5.9996 274.4151 0013397 238.9182 120.9630 14.77898302473089
ChubuSat-2
1 41338U 16012B   24181.52342204  .00008147  00000-0  50346-3 0  9998
2 41338  31.0015 311.4067 0011326   1.0889 358.9772 15.08480355459460
ChubuSat-3
1 41339U 16012C   24181.73615279  .00007266  00000-0  45582-3 0  9994
2 41339  31.0082 308.5962 0011361   7.6240 352.4569 15.07888400459474
Horyu-4
1 41340U 16012D   24181.31425520  .00017423  00000-0  85760-3 0  9996
2 41340  31.0014 256.5514 0010144  98.0046 262.1745 15.16766329459997
Lapan A3
1 41603U 16040E   24181.83750515  .00005339  00000-0  21376-3 0  9997
2 41603  97.1417 194.9844 0013612  62.0194 298.2420 15.25375757445152
Pratham
1 41783U 16059A   24181.56224911  .00001670  00000-0  31835-3 0  9997
2 41783  97.8357 200.3178 0031977 344.0544  15.9650 14.64942814414352
CAS-2T
1 41847U 16066G   24181.45728365  .00003782  00000-0  55521-3 0  9990
2 41847  98.4598 252.6660 0354747 140.3080 222.4658 14.41336282401268
CAS-4B
1 42759U 17034B   24181.65883806  .00022455  00000-0  79508-3 0  9992
2 42759  43.0169 156.0503 0010171  68.6544 291.5393 15.28672232389319
CAS-4A
1 42761U 17034D   24181.78994010  .00025391  00000-0  89445-3 0  9992
2 42761  43.0201 153.6497 0009148  83.1702 277.0191 15.28790362389347
Aalto 1
1 42775U 17036L   24181.58598320  .00143754  00000-0  11268-2 0  9992
2 42775  97.1013 211.4010 0007940 147.9450 212.2298 15.71093862391053
URSA MAIOR
1 42776U 17036M   24181.66288752  .03652650  22929-5  10917-2 0  9999
2 42776  97.0865 216.9055 0010711 232.6258 127.4061 16.26945146391412
Max Valier Sat
1 42778U 17036P   24181.51780098  .07500886  23432-5  86307-3 0  9999
2 42778  97.0566 220.7984 0007714 249.3707 110.6764 16.36858806391577
D-SAT
1 42794U 17036AF  24181.40238860  .00010135  00000-0  70070-3 0  9997
2 42794  97.4822 162.8519 0111594 107.2138 254.1337 15.00896127382552
TechnoSat
1 42829U 17042E   24181.48401193  .00005183  00000-0  45740-3 0  9995
2 42829  97.3847   1.8648 0013185  37.3444 322.8693 14.96729771379011
AO-91
1 43017U 17073E   24181.65002813  .00010367  00000-0  64227-3 0  9995
2 43017  97.5760  56.7023 0208205 251.8998 105.9447 14.93649751357524
TianYi 2
1 43155U 18008A   24181.79805980  .00166309  00000-0  16708-2 0  9996
2 43155  97.2324 236.0992 0002508  65.8326 294.3196 15.64933554356871
Zhou Enlai
1 43156U 18008B   24181.79260357  .00593600  00000-0  22048-2 0  9992
2 43156  97.2306 238.5740 0004619 232.8647 127.2203 15.86629123356946
TianYi 6
1 43158U 18008D   24181.66998494  .00081055  00000-0  14762-2 0  9990
2 43158  97.2538 230.3174 0006000  68.4921 291.6969 15.49182265356406
S-Net D
1 43186U 18014G   24181.62203639  .00008416  00000-0  60079-3 0  9997
2 43186  97.5885  83.2444 0009648 331.9489  28.1216 15.04730607350376
S-Net B
1 43187U 18014H   24181.62434953  .00008109  00000-0  57907-3 0  9998
2 43187  97.5893  83.1972 0010345 326.5487  33.5085 15.04723644350372
S-Net A
1 43188U 18014J   24181.62317315  .00008396  00000-0  59927-3 0  9993
2 43188  97.5896  83.3100 0010248 327.3838  32.6754 15.04732366350376
S-Net C
1 43189U 18014K   24181.29395654  .00008097  00000-0  57811-3 0  9997
2 43189  97.5912  82.9368 0011752 319.9578  40.0781 15.04721675348872
Ten-Koh
1 43677U 18084G   24181.38074024  .00005767  00000-0  51691-3 0  9992
2 43677  98.0648 335.2704 0013225 342.9921  17.0854 14.96134667308543
